ROMMA est une association bénévole à but non lucratif. Votre soutien est indispensable : ADHERER à ROMMA ou FAIRE un DON

Chambon - (38, Isère)

Oisans (2460 m)   Longitude: 06° 10' 42" E   Latitude: 45° 01' 32" N Station partenaire n°803
 

Détail journalier du     <<     >>

Température Humidité Vent Dir Rafale Dir. rafale Neige 1 Neige 2
Heure (°C) (%) (km/h) (km/h) (cm) (cm)
01:00 -7.3516SSE31SSE060
02:00 -7.0435SSE23SSE060
03:00 -7.5596OSO15OSO060
04:00 -7.5595SSO12OSO060
05:00 -8.2775NE12NE059
06:00 -8.1792NE10NE059
07:00 -8.1812ENE8ENE059
08:00 -8.5945NNE10O059
09:00 -7.4923OSO8O059
10:00 -6.4853OSO7NO058
11:00 -6.2822NO9NO058
12:00 -6.6814N8NNE059
13:00 -7.2877NNE15NNE058
14:00 -6.6866NNE12NNE058
15:00 -6.8895NNE11NNE058
16:00 -7.3916N13NNE058
17:00 -7.7946NNE12NNE058
18:00 -8.0943NNE17E058
19:00 -7.3896NNE20NNE058
20:00 -7.4898N20NNE057
21:00 -7.4864NNE16NNE057
22:00 -6.7855N24N057
23:00 -6.2777N19N057
minuit -5.4745OSO14OSO057

Graphique du 10-11-2019

 

Serveur OMMA